Flag for U.S.A. Weather past 2 weeks in Chicago, Illinois, U.S.A.

38 °F

Drizzle. Fog.

Feels Like: 30 °F
Forecast: 39 / 42 °F
Wind: 14 mph from North

Location: Chicago Midway Airport

Current Time: Nov 27, 2015 at 3:55:55 PM

Latest Report: Nov 27, 2015 at 2:53 PM

Visibility: 4 mi

Pressure: 30.40 "Hg

Humidity: 83%

Dew point: 33 °F

Location of ChicagoLocation

Historic Weather in Chicago — Graph


Chicago temperature yesterday

Maximum temperature yesterday: 62 °F (at 2:53 PM)
Minimum temperature yesterday: 51 °F (at 12:53 AM)
Average temperature yesterday: 57 °F

Past Weeks' High & Low Weather Summary

High65 °F (Nov 15, 12:53 PM)97% (Nov 21, 8:02 AM)30.37 "Hg (Nov 21, 8:02 AM)
Low14 °F (Nov 22, 6:53 AM)27% (Nov 20, 12:53 PM)29.46 "Hg (Nov 18, 11:53 AM)
Average44 °F64%30.10 "Hg
* Reported Nov 12 1:53 PM — Nov 27 1:53 PM, Chicago, Weather by CustomWeather, © 2015

Note: Actual official high and low records may vary slightly from our data, if they occured in-between our weather recording intervals... More about our weather records


Chicago weather history for previous 24 hours

Time TempWeatherWind HumidityBarometerVisibility
1:53 PM
Fri, Nov 27
39 °FDrizzle. Fog.16 mph82%30.37 "Hg4 mi
12:53 PM39 °FLight rain. Fog.17 mph86%30.37 "Hg4 mi
11:53 AM40 °FFog.20 mph83%30.37 "Hg4 mi
10:53 AM41 °FFog.14 mph86%30.37 "Hg3 mi
9:53 AM41 °FLight rain. Fog.17 mph86%30.36 "Hg4 mi
8:53 AM41 °FLight rain. Fog.16 mph86%30.35 "Hg2 mi
7:53 AM40 °FLight rain. Fog.18 mph86%30.32 "Hg4 mi
6:53 AM40 °FLight rain. Fog.18 mph86%30.30 "Hg3 mi
5:55 AM42 °FLight rain. Fog.15 mph85%30.25 "Hg2 mi
4:53 AM44 °FRain. Fog.14 mph85%30.22 "Hg2 mi
3:53 AM56 °FRain. Fog.N/A90%30.18 "Hg3 mi
2:53 AM57 °FRain. Fog.15 mph87%30.15 "Hg4 mi
2:03 AM57 °FRain. Fog.15 mph83%30.13 "Hg2 mi
12:53 AM56 °FLight rain. Fog.14 mph87%30.14 "Hg3 mi
11:53 PM
Thu, Nov 26
57 °FLight rain. Fog.13 mph83%30.16 "Hg4 mi
10:53 PM60 °FOvercast.21 mph69%30.16 "Hg10 mi
9:53 PM59 °FOvercast.16 mph72%30.17 "Hg10 mi
8:53 PM59 °FOvercast.16 mph72%30.18 "Hg10 mi
7:53 PM60 °FMostly cloudy.16 mph72%30.18 "Hg10 mi
6:53 PM60 °FMostly cloudy.18 mph72%30.17 "Hg10 mi
5:53 PM61 °FMostly cloudy.16 mph72%30.17 "Hg10 mi
4:53 PM62 °FMostly cloudy.14 mph73%30.17 "Hg10 mi
3:53 PM62 °FCloudy.18 mph73%30.16 "Hg10 mi
Weather by CustomWeather, © 2015

See weather overviewHow to use our weather pages